Regional Weather Roundup
Issued by NWS Charleston, SC

Current Version | Previous Version | Text Only | Print | Product List | Glossary Off
Versions: 1 2 3 4 5 6 7 8 9 10 11 12 13 14 15 16 17 18 19 20 21 22 23 24 25 26 27 28 29 30 31 32 33 34 35 36 37 38 39 40 41 42 43 44 45
000 ASUS42 KCHS 281612 RWRCHS REGIONAL WEATHER ROUNDUP NATIONAL WEATHER SERVICE CHARLESTON SC 1200 PM EDT TUE MAR 28 2017 NOTE: "FAIR" INDICATES FEW OR NO CLOUDS BELOW 12,000 FEET WITH NO SIGNIFICANT WEATHER AND/OR OBSTRUCTIONS TO VISIBILITY. NOT ALL STATIONS ARE QUALITY CONTROLLED. USE DATA WITH CAUTION... ESPECIALLY DEWPOINT OBSERVATIONS. SCZ027-030-031-034>040-042>050-281700- ...SOUTHEAST SOUTH CAROLINA... CITY SKY/WX TMP DP RH WIND PRES REMARKS N CHARLESTON PTSUNNY 80 58 46 W13 30.00F WATERFRONT PRK NOT AVBL JOHNS ISLAND FAIR 77 64 65 S10G17 30.01F PINOPOLIS NOT AVBL MONCKS CORNER FAIR 77 55 47 SW6G16 29.99F SUMMERVILLE FAIR 79 57 47 W8 30.00F BEAUFORT MCAS MOSUNNY 81 60 48 W13 30.01F BEAUFORT ARPT FAIR 79 61 53 SW10G21 30.01F HILTON HEAD IS SUNNY 77 61 57 SW9 30.03 WALTERBORO SUNNY 79 55 44 SW14 30.00F ALLENDALE PTSUNNY 77 61 57 VRB5G13 29.99F ...SOUTHERN MIDLANDS AND PEE DEE... CITY SKY/WX TMP DP RH WIND PRES REMARKS GEORGETOWN FAIR 79 57 47 SW14G24 30.00F KINGSTREE FAIR 73 55 53 SW8 29.97F ORANGEBURG PTSUNNY 76 59 55 SW14 29.98F BARNWELL FAIR 79 63 57 W10 30.00S AIKEN FAIR 73 59 60 SW14 30.02F MANNING FAIR 73 59 60 SW8 29.98F COLUMBIA MOSUNNY 80 59 48 W12G20 29.95F SUMTER MOSUNNY 76 59 55 S9 29.94F FLORENCE CLOUDY 73 61 65 SW10 29.96F MYRTLE BEACH MOSUNNY 81 61 50 SW17 29.99F N MYRTLE BEACH SUNNY 71 62 73 SW15 29.98F $$ GAZ063-065-086>088-099>101-113>116-118-119-134>141-150-281700- ...SOUTHEAST GEORGIA... CITY SKY/WX TMP DP RH WIND PRES REMARKS SAVANNAH ARPT MOSUNNY 82 59 45 W15 30.03F HUNTER AAF SUNNY 80 64 58 W9 30.00F FORT STEWART NOT AVBL STATESBORO MOSUNNY 77 65 65 W9G16 30.02F SYLVANIA SUNNY N/A N/A N/A SW6G16 30.02F CLAXTON FAIR N/A N/A N/A SW8 30.03F ...CSRA...CENTRAL AND FAR SOUTHEAST GEORGIA... CITY SKY/WX TMP DP RH WIND PRES REMARKS THOMSON CLOUDY 72 60 67 NW10 30.04F AUGUSTA-BUSH CLOUDY 78 62 57 W12 29.98F AUGUSTA-DANIEL MOSUNNY 74 59 59 SW8 30.00F SWAINSBORO PTSUNNY 77 61 57 SW10G17 30.03S VIDALIA CLOUDY 77 63 61 SW12 30.04F EASTMAN FAIR 79 49 35 W8 30.06F HAZLEHURST PTSUNNY 77 65 66 W6 30.04F ALMA MOSUNNY 74 63 68 W12 30.06F WAYCROSS MOSUNNY 80 67 63 W8 30.06S JESUP PTSUNNY 79 61 53 NW13 30.05F BAXLEY FAIR 73 68 83 W6 30.05F BRUNSWICK SUNNY 81 63 54 W13 30.06S SAINT SIMONS SUNNY 77 59 53 W7 30.05S $$ SCZ027-028-034-036>038-045-046-048>050-GAZ119-141-281700- ...LAKE AND SUPPLEMENTAL COASTAL OBSERVATIONS... STATION/POSITION TIME TEMP WIND PRES WAVE SWELL AIR SEA DIR/SP/G HT/PER HT/PER/DIR (UTC) (F) (DEG/KT/KT) (MB) (FT/S) (FT/S/D) WINYAH BAY NOT AVBL LAKE MURRAY 1520 69 210/ 6/ 10 1014.6S ACE BASIN NERRS 1445 74 230/ 4 1017.0 FORT PULASKI 1548 74 64 280/ 9/ 11 1017.2F SAPELO ISLAND 1500 73 250/ 6 1018.0 $$ ANZ835-935-AMZ111-154-330-350-352-354-370-450-454-472-281700- ...C-MAN AND BUOY OBSERVATIONS... STATION/POSITION TIME TEMP WIND PRES WAVE SWELL AIR SEA DIR/SP/G HT/PER HT/PER/DIR (UTC) (F) (DEG/KT/KT) (MB) (FT/S) (FT/S/D) BUOY 41004 1450 71 72 230/ 16/ 17 1016.4 5/11 5/140/11 BUOY 41008 1450 65 63 220/ 8/ 10 1017.3 4/11 3/110/11 FOLLY BEACH CMAN 1500 66 210/ 13/ 15 1017.3F CAPERS NEARSHORE 1508 65 230/ 12/ 16 1016.5S FRIPP NEARSHORE 1508 65 62 230/ 8/ 10 1016.9S STATION/POSITION TIME TEMP WIND PRES WAVE SWELL AIR SEA DIR/SP/G HT/PER HT/PER/DIR (UTC) (F) (DEG/KT/KT) (MB) (FT/S) (FT/S/D) 5E ST. MARYS GA 1500 66 N/A 4/11 3/120/11 FRYING PAN BUOY 1530 72 73 230/ 19/ 21 1016.3F BUOY 41025 1450 72 74 240/ 17/ 19 1015.7 5/10 3/170/10 CAPE LOOKOUT NC 1500 69 250/ 11/ 14 1016.1R BUOY 41002 1450 69 73 310/ 2/ 4 1018.6 6/10 7/120/10 BUOY 41010 NOT AVBL ST AUGUSTINE FL 1600 78 68 280/ 6/ 8 1019.0F $$

USA.gov is the U.S. government's official web portal to all federal, state and local government web resources and services.